Location: Argonnex
(45.9500°N, 6.1333°E)
Time: 17:21:04
(UTC+00:00)

Cosmos 1980 Rocket - Pass Details

Date: 28 January 2023
Orbit: 828 x 850 km, 71.0° (Epoch: 30 March)

Event Time Altitude Azimuth Distance (km) Brightness Sun altitude
Rises 18:32:52 0° 227° (SW) 3,377 6.2 -20.5°
Reaches altitude 10° 18:35:26 10° 235° (SW) 2,450 5.4 -21.0°
Maximum altitude 18:40:43 41° 305° (NW) 1,212 3.4 -21.9°
Drops below altitude 10° 18:46:05 10° 15° (NNE) 2,478 4.5 -22.8°
Enters shadow 18:46:20 - 16° (NNE) 2,565 4.5 -22.9°
